Amateur Radio Satellites - All Passes

Search period start: 19 May 2013 22:20
Search period end: 20 May 2013 22:20
Location: Banff, 51.1670°N, 115.5670°W

Satellite Date Start Highest point End Downlink Frequencies (MHz)
Time Altitude Azimuth
OPAL 19 May 22:41:44 22:46:56 74° 69° (ENE) 22:52:06 ?
Oscar 11 19 May 23:00:37 23:04:49 51° 260° (W) 23:09:04 145.825 FM, Beacon 2401.500 USB
KITSAT 1 19 May 23:10:10 23:14:44 17° 99° (E) 23:19:20 435.175 FM
JAS-1B 19 May 23:11:57 23:15:38 13° 280° (W) 23:19:07 435.800 - 435.900 CW/SSB
UOSAT-12 19 May 23:25:47 23:27:31 12° 251° (WSW) 23:29:16 437.025 FM, 437.400 FM
HO-68 19 May 23:42:32 23:48:13 25° 270° (W) 23:53:56 435.675 MHz FM
RS-15 19 May 23:59:58 00:10:53 45° 17° (NNE) 00:21:20 29.354 - 29.394 USB, Beacon 29.352 USB
JAS-2 20 May 00:04:17 00:10:49 29° 272° (W) 00:17:27 435.800 - 435.900 CW/SSB, 435.910 FM
OPAL 20 May 00:22:40 00:26:22 19° 268° (W) 00:30:04 ?
AO-40 20 May 00:29:22 05:29:01 30° 165° (SSE) 08:53:45 Beacon 2401.320
KITSAT 1 20 May 01:00:40 01:08:37 66° 121° (ESE) 01:16:38 435.175 FM
MaSat-1 20 May 02:07:03 02:10:38 15° 102° (ESE) 02:13:55 437.345 MHz
RS-15 20 May 02:13:30 02:24:52 85° 48° (NE) 02:35:48 29.354 - 29.394 USB, Beacon 29.352 USB
Oscar 16 20 May 02:35:11 02:39:18 23° 91° (E) 02:43:22 437.025 USB, Beacon 2401.1428
AO-27 20 May 02:37:18 02:40:54 18° 89° (E) 02:44:29 436.795 MHz FM
ITAMSAT 1 20 May 02:44:33 02:48:26 21° 90° (E) 02:52:18 435.822 SSB
KITSAT 1 20 May 02:56:41 03:04:27 47° 325° (NW) 03:12:16 435.175 FM
Uribyol 2 20 May 03:25:41 03:30:43 45° 99° (E) 03:35:42 436.500 FM
Oscar 19 20 May 03:35:04 03:40:13 60° 101° (ESE) 03:45:19 437.125 CW, 437.150 USB
MaSat-1 20 May 03:45:20 03:52:13 66° 118° (ESE) 03:57:47 437.345 MHz
Uosat F 20 May 03:54:04 03:56:39 14° 86° (E) 03:59:14 435.120 FM
AO-Echo 20 May 04:02:39 04:06:56 33° 96° (E) 04:11:14 ?
TMSAT-1 20 May 04:06:09 04:07:18 11° 82° (E) 04:08:27 436.925 FM
Oscar 16 20 May 04:13:57 04:19:06 61° 290° (WNW) 04:24:10 437.025 USB, Beacon 2401.1428
AO-27 20 May 04:15:48 04:21:03 77° 288° (WNW) 04:26:16 436.795 MHz FM
ITAMSAT 1 20 May 04:23:15 04:28:28 69° 289° (WNW) 04:33:39 435.822 SSB
Gurwin Techsat 1B 20 May 04:23:51 04:27:58 22° 90° (E) 04:32:04 435.225 FM
RS-15 20 May 04:26:37 04:36:03 34° 253° (WSW) 04:45:18 29.354 - 29.394 USB, Beacon 29.352 USB
KITSAT 1 20 May 04:55:08 05:01:58 29° 353° (N) 05:08:51 435.175 FM
Uribyol 2 20 May 05:05:27 05:10:06 33° 298° (WNW) 05:14:44 436.500 FM
Oscar 19 20 May 05:15:02 05:19:14 26° 301° (WNW) 05:23:25 437.125 CW, 437.150 USB
ISS 20 May 05:17:49 05:20:34 24° 146° (SE) 05:23:21 145.800 FM
MaSat-1 20 May 05:28:49 05:34:43 34° 315° (NW) 05:39:33 437.345 MHz
Uosat F 20 May 05:31:11 05:36:14 86° 106° (ESE) 05:41:17 435.120 FM
AO-Echo 20 May 05:41:29 05:45:48 37° 295° (WNW) 05:50:09 ?
TMSAT-1 20 May 05:43:00 05:48:19 65° 102° (ESE) 05:53:35 436.925 FM
STRAND 1 20 May 05:51:04 05:55:14 26° 59° (ENE) 05:59:25 ?
Oscar 16 20 May 05:55:14 05:57:29 13° 311° (NW) 05:59:44 437.025 USB, Beacon 2401.1428
AO-27 20 May 05:56:43 05:59:48 16° 308° (NW) 06:02:52 436.795 MHz FM
Gurwin Techsat 1B 20 May 06:03:09 06:08:26 66° 290° (WNW) 06:13:41 435.225 FM
ITAMSAT 1 20 May 06:04:21 06:07:07 15° 309° (NW) 06:09:52 435.822 SSB
AO-7 20 May 06:08:23 06:16:08 40° 97° (E) 06:23:51 29.400 - 29.500 MHz
KITSAT 1 20 May 06:52:34 06:59:54 35° 23° (NNE) 07:07:14 435.175 FM
ISS 20 May 06:53:38 06:56:58 77° 165° (SSE) 07:00:20 145.800 FM
Uosat F 20 May 07:11:05 07:14:27 18° 305° (NW) 07:17:48 435.120 FM
MaSat-1 20 May 07:15:57 07:18:18 13° 336° (NNW) 07:20:27 437.345 MHz
TMSAT-1 20 May 07:23:38 07:27:52 25° 302° (WNW) 07:32:05 436.925 FM
STRAND 1 20 May 07:29:08 07:34:08 57° 259° (WSW) 07:39:12 ?
Gurwin Techsat 1B 20 May 07:44:49 07:47:29 14° 310° (NW) 07:50:09 435.225 FM
Saudisat 1A 20 May 07:47:42 07:52:08 51° 124° (SE) 07:56:38 436.775 MHz
AO-7 20 May 08:01:09 08:09:21 62° 299° (WNW) 08:17:31 29.400 - 29.500 MHz
ISS 20 May 08:30:22 08:33:45 82° 7° (N) 08:37:07 145.800 FM
PCSat 20 May 08:46:21 08:51:09 33° 113° (ESE) 08:55:58 145.825 MHz
Oscar 10/S400 20 May 08:46:23 11:44:17 36° 253° (WSW) 18:19:21 145.825 - 145.975 CW/USB, Beacon 145.810 USB
KITSAT 1 20 May 08:48:23 08:56:34 79° 49° (NE) 09:04:43 435.175 FM
Hamsat 20 May 08:52:20 08:56:40 70° 102° (ESE) 09:01:02 145.90 MHz
JAS-1B 20 May 08:55:24 09:01:08 34° 93° (E) 09:06:19 435.800 - 435.900 CW/SSB
Sapphire 20 May 09:18:35 09:23:50 54° 119° (ESE) 09:29:07 437.095 MHz 1200 baud AX-25 AFSK
HO-68 20 May 09:19:05 09:19:42 10° 79° (E) 09:20:19 435.675 MHz FM
Saudisat 1A 20 May 09:27:47 09:32:02 36° 325° (NW) 09:36:20 436.775 MHz
SO-67 20 May 09:40:26 09:44:03 86° 103° (ESE) 09:47:38 435.3500 MHz FM
AO-7 20 May 09:54:51 10:00:39 22° 322° (NW) 10:06:27 29.400 - 29.500 MHz
ISS 20 May 10:07:08 10:10:23 46° 205° (SSW) 10:13:38 145.800 FM
SO-50 20 May 10:22:36 10:26:57 36° 120° (ESE) 10:31:15 436.795 FM
PCSat 20 May 10:29:05 10:34:24 54° 314° (NW) 10:39:45 145.825 MHz
Hamsat 20 May 10:29:25 10:32:18 18° 301° (WNW) 10:35:11 145.90 MHz
Oscar 11 20 May 10:43:55 10:47:14 21° 91° (E) 10:50:33 145.825 FM, Beacon 2401.500 USB
KITSAT 1 20 May 10:44:24 10:51:20 32° 251° (WSW) 10:58:15 435.175 FM
MaSat-1 20 May 10:44:31 10:47:04 15° 29° (NNE) 10:49:18 437.345 MHz
JAS-1B 20 May 10:45:56 10:52:09 47° 297° (WNW) 10:57:40 435.800 - 435.900 CW/SSB
OPAL 20 May 10:48:56 10:50:43 12° 87° (E) 10:52:29 ?
HO-68 20 May 11:02:12 11:09:11 52° 101° (E) 11:16:07 435.675 MHz FM
Sapphire 20 May 11:02:28 11:07:30 38° 321° (NW) 11:12:34 437.095 MHz 1200 baud AX-25 AFSK
JAS-2 20 May 11:07:31 11:14:31 47° 96° (E) 11:20:42 435.800 - 435.900 CW/SSB, 435.910 FM
Saudisat 1A 20 May 11:09:58 11:13:00 17° 349° (NNW) 11:16:01 436.775 MHz
SO-67 20 May 11:15:57 11:16:56 11° 302° (WNW) 11:17:56 435.3500 MHz FM
ISS 20 May 11:45:10 11:46:29 12° 223° (SW) 11:47:47 145.800 FM
SO-50 20 May 12:02:54 12:07:31 48° 320° (NW) 12:12:04 436.795 FM
PCSat 20 May 12:15:04 12:19:02 20° 338° (NNW) 12:23:01 145.825 MHz
Oscar 11 20 May 12:19:31 12:23:46 52° 290° (WNW) 12:28:01 145.825 FM, Beacon 2401.500 USB
Oscar 16 20 May 12:21:59 12:23:47 12° 48° (NE) 12:25:35 437.025 USB, Beacon 2401.1428
OPAL 20 May 12:25:28 12:30:32 74° 106° (ESE) 12:35:31 ?
MaSat-1 20 May 12:26:07 12:30:04 88° 57° (ENE) 12:33:07 437.345 MHz
ITAMSAT 1 20 May 12:32:46 12:34:04 11° 47° (NE) 12:35:21 435.822 SSB
JAS-1B 20 May 12:38:39 12:41:03 12° 323° (NW) 12:43:22 435.800 - 435.900 CW/SSB
Sapphire 20 May 12:49:00 12:52:30 17° 346° (NNW) 12:56:00 437.095 MHz 1200 baud AX-25 AFSK
HO-68 20 May 12:50:10 12:56:48 43° 301° (WNW) 13:03:26 435.675 MHz FM
Saudisat 1A 20 May 12:51:17 12:54:23 17° 13° (NNE) 12:57:28 436.775 MHz
JAS-2 20 May 12:52:40 12:59:31 44° 299° (WNW) 13:05:40 435.800 - 435.900 CW/SSB, 435.910 FM
Uribyol 2 20 May 13:11:20 13:15:08 21° 56° (NE) 13:18:58 436.500 FM
Oscar 19 20 May 13:19:15 13:23:29 26° 59° (ENE) 13:27:43 437.125 CW, 437.150 USB
AO-7 20 May 13:37:16 13:39:25 11° 17° (NNE) 13:41:33 29.400 - 29.500 MHz
UOSAT-12 20 May 13:39:24 13:43:51 59° 126° (SE) 13:48:21 437.025 FM, 437.400 FM
AO-Echo 20 May 13:45:14 13:47:33 14° 53° (NE) 13:49:51 ?
SO-50 20 May 13:45:49 13:49:12 19° 343° (NNW) 13:52:33 436.795 FM
Oscar 16 20 May 13:57:02 14:02:06 55° 68° (ENE) 14:07:11 437.025 USB, Beacon 2401.1428
AO-27 20 May 14:00:15 14:05:10 45° 66° (ENE) 14:10:07 436.795 MHz FM
PCSat 20 May 14:01:29 14:04:36 15° 4° (N) 14:07:42 145.825 MHz
OPAL 20 May 14:05:11 14:08:57 22° 306° (NW) 14:12:40 ?
ITAMSAT 1 20 May 14:07:28 14:12:27 50° 67° (ENE) 14:17:28 435.822 SSB
Gurwin Techsat 1B 20 May 14:14:11 14:16:08 12° 48° (NE) 14:18:04 435.225 FM
Saudisat 1A 20 May 14:30:56 14:35:17 39° 36° (NE) 14:39:33 436.775 MHz
Sapphire 20 May 14:34:46 14:38:08 16° 12° (NNE) 14:41:30 437.095 MHz 1200 baud AX-25 AFSK
JAS-2 20 May 14:39:24 14:42:41 14° 322° (NW) 14:45:50 435.800 - 435.900 CW/SSB, 435.910 FM
HO-68 20 May 14:39:36 14:42:46 14° 325° (NW) 14:45:55 435.675 MHz FM
Uribyol 2 20 May 14:48:56 14:54:07 77° 256° (WSW) 14:59:21 436.500 FM
Oscar 19 20 May 14:57:22 15:02:30 60° 259° (WSW) 15:07:41 437.125 CW, 437.150 USB
Uosat F 20 May 15:11:47 15:16:15 34° 63° (ENE) 15:20:44 435.120 FM
UOSAT-12 20 May 15:20:12 15:24:19 32° 327° (NNW) 15:28:28 437.025 FM, 437.400 FM
AO-Echo 20 May 15:20:46 15:25:37 74° 73° (ENE) 15:30:23 ?
AO-7 20 May 15:22:55 15:29:23 26° 43° (NE) 15:35:53 29.400 - 29.500 MHz
SO-50 20 May 15:28:33 15:31:31 16° 8° (N) 15:34:27 436.795 FM
TMSAT-1 20 May 15:30:25 15:34:55 29° 60° (ENE) 15:39:26 436.925 FM
Oscar 16 20 May 15:37:29 15:41:48 26° 268° (W) 15:46:09 437.025 USB, Beacon 2401.1428
AO-27 20 May 15:40:18 15:44:53 31° 265° (W) 15:49:30 436.795 MHz FM
PCSat 20 May 15:45:27 15:49:58 26° 30° (NNE) 15:54:28 145.825 MHz
ITAMSAT 1 20 May 15:47:49 15:52:14 28° 267° (W) 15:56:41 435.822 SSB
Gurwin Techsat 1B 20 May 15:49:52 15:55:02 55° 68° (ENE) 16:00:14 435.225 FM
Saudisat 1A 20 May 16:10:43 16:15:04 44° 237° (WSW) 16:19:20 436.775 MHz
Sapphire 20 May 16:18:17 16:23:14 34° 37° (NE) 16:28:10 437.095 MHz 1200 baud AX-25 AFSK
Uribyol 2 20 May 16:32:18 16:34:31 13° 275° (W) 16:36:45 436.500 FM
RS-15 20 May 16:44:25 16:54:06 31° 104° (ESE) 17:03:27 29.354 - 29.394 USB, Beacon 29.352 USB
Uosat F 20 May 16:50:17 16:55:00 41° 262° (W) 16:59:45 435.120 FM
AO-Echo 20 May 17:01:52 17:04:58 17° 271° (W) 17:08:03 ?
UOSAT-12 20 May 17:02:56 17:05:49 16° 351° (N) 17:08:43 437.025 FM, 437.400 FM
SO-50 20 May 17:09:20 17:13:30 32° 32° (NNE) 17:17:35 436.795 FM
TMSAT-1 20 May 17:09:27 17:14:37 53° 260° (W) 17:19:50 436.925 FM
AO-7 20 May 17:12:48 17:21:05 79° 66° (ENE) 17:29:26 29.400 - 29.500 MHz
PCSat 20 May 17:28:42 17:34:11 84° 53° (NE) 17:39:38 145.825 MHz
Gurwin Techsat 1B 20 May 17:30:55 17:35:21 27° 268° (W) 17:39:49 435.225 FM
JAS-1B 20 May 17:57:33 18:02:42 18° 45° (NE) 18:07:24 435.800 - 435.900 CW/SSB
Sapphire 20 May 18:01:40 18:07:03 63° 239° (WSW) 18:12:23 437.095 MHz 1200 baud AX-25 AFSK
Hamsat 20 May 18:17:53 18:20:08 14° 57° (ENE) 18:22:25 145.90 MHz
UOSAT-12 20 May 18:44:28 18:47:40 18° 16° (NNE) 18:50:52 437.025 FM, 437.400 FM
SO-50 20 May 18:49:55 18:54:27 60° 234° (SW) 18:58:52 436.795 FM
RS-15 20 May 18:53:08 19:05:08 86° 129° (SE) 19:16:36 29.354 - 29.394 USB, Beacon 29.352 USB
AO-7 20 May 19:07:45 19:14:44 29° 268° (W) 19:21:47 29.400 - 29.500 MHz
PCSat 20 May 19:13:09 19:16:59 20° 253° (WSW) 19:20:48 145.825 MHz
STRAND 1 20 May 19:34:39 19:39:17 33° 95° (E) 19:43:55 ?
JAS-1B 20 May 19:43:14 19:52:01 58° 66° (ENE) 19:59:28 435.800 - 435.900 CW/SSB
JAS-2 20 May 19:43:44 19:47:24 14° 39° (NE) 19:51:03 435.800 - 435.900 CW/SSB, 435.910 FM
Sapphire 20 May 19:47:44 19:49:25 11° 258° (WSW) 19:51:06 437.095 MHz 1200 baud AX-25 AFSK
Hamsat 20 May 19:51:24 19:55:37 86° 256° (WSW) 19:59:55 145.90 MHz
HO-68 20 May 19:51:38 19:56:23 20° 43° (NE) 20:01:08 435.675 MHz FM
SO-67 20 May 20:21:03 20:24:37 70° 74° (ENE) 20:28:12 435.3500 MHz FM
UOSAT-12 20 May 20:24:30 20:28:56 45° 39° (NE) 20:33:22 437.025 FM, 437.400 FM
RS-15 20 May 21:07:31 21:18:50 49° 337° (NNW) 21:29:40 29.354 - 29.394 USB, Beacon 29.352 USB
STRAND 1 20 May 21:13:47 21:18:37 43° 295° (WNW) 21:23:27 ?
JAS-2 20 May 21:23:22 21:30:34 43° 61° (ENE) 21:37:46 435.800 - 435.900 CW/SSB, 435.910 FM
Hamsat 20 May 21:31:22 21:32:26 11° 275° (W) 21:33:29 145.90 MHz
JAS-1B 20 May 21:34:10 21:42:45 43° 263° (W) 21:50:12 435.800 - 435.900 CW/SSB
HO-68 20 May 21:35:51 21:42:53 66° 66° (ENE) 21:49:57 435.675 MHz FM
Oscar 11 20 May 21:44:09 21:47:58 32° 65° (ENE) 21:51:50 145.825 FM, Beacon 2401.500 USB
SO-67 20 May 21:57:27 21:58:33 11° 273° (W) 21:59:39 435.3500 MHz FM
UOSAT-12 20 May 22:04:51 22:09:05 37° 239° (WSW) 22:13:18 437.025 FM, 437.400 FM
OPAL 20 May 22:07:14 22:12:04 41° 62° (ENE) 22:16:53 ?

Developed and maintained by Chris Peat, Heavens-Above GmbH. Please read the updated FAQ before sending e-mail. Imprint. DLR
